ATLAS 5 CENTAUR DEB, 44680

Orbit data source: Space-Track

ATLAS 5 CENTAUR DEB, 44680 is space debris in HEO originally from a launch on Wed, 17 Oct 2018 UTC launched from the Air Force Eastern Test Range (AFETR). Debris objects in space refer to the collection of defunct objects orbiting the Earth. Examples of debris include non-operational satellites, rocket bodies, and fragments generated from explosions, collisions, or faulty payload assembly.

Loading next visibility...
Identifier
44680, 2018-079AS
Orbit
HEO
Country
Flag of USUS
Related business
Flag of USUnited Launch Alliance/Lockheed Martin (US)
Manufacturer
ULA Decatur
Mission
Spacecraft
Bus & Motor
Unknown
Mass
Unknown
Launch date (UTC)
2018-10-17 (8 years ago)
Launch vehicle
Unknown
Launch site
Air Force Eastern Test Range (AFETR)
Object type
Payload
Rocket body
Debris
Shape & HBR
Unknown shape, 1.1 m
Radar Cross Section
RCS unknown

Expand to show TLE details & history
Last TLE update: 2 days ago

TLE from 2 days ago
0 ATLAS 5 CENTAUR DEB
1 44680U 18079AS  26122.68195866 -.00000087  00000-0  00000-0 0  9995
2 44680  13.2860  52.5179 4690690 276.3515  34.2314  1.75589302 44663
Epoch: 2026-05-02T16:22Z
TLE epoch observation values (Epoch: 2026-05-02T16:22:01.228Z)
Latitude
0.00002°
Longitude
-53.6891°
Altitude
15,145.832 km
Speed
4.827 km/s
True Right ascension
03h 29m 38s
True Declination
0° 00' 00"
Sunlit
Object was in daylight at epoch
Visualization orbit readout
Latitude
Unknown
Longitude
Unknown
Altitude
Unknown
Speed
Unknown
Apparent Right ascension
Unknown
Apparent Declination
Unknown
Sunlit
N/A
Visualization observer readout
Local Sidereal Time
05:26:01
Azimuth
Unknown
Elevation
Unknown
Doppler factor
Unknown
Orbital elements
Apogee altitude
36,261.087 km
Perigee altitude
9,031.953 km
Semi-major axis
29,024.657 km
Eccentricity
0.46907
Inclination
13.286°
RAAN
52.5179°
Arg. of periapsis
276.3515°
True anomaly
83.80889°
Mean anomaly
34.2314°
Eccentric anomaly
56.6923°
Mean motion
0.43893 °/min
Orbital period
820.18 mins
BSTAR
0
Loading maneuver chart data...
Computing Atmospheric mass density...

Documentation

Showing up to 5 results
|